When you browse on this site, cookies collect data to enhance your experience and personalize the content and advertising you see.
Visit our Privacy Policy to learn more. By continuing to use the site, you agree to this use of cookies and data.
  • In Austria
  • List of Countries
  • For 7 days
  • Water Temperature
  • Satellite Maps
  • Weather Map
  • News
  • Weather Widgets
  • user-avatar
    Login

    Hourly Weather Shkoder

    Today, 21 November, Wednesday

    Time Temperature Precipitation Wind Pressure Humidity
    00:00 +13°C° 4.1 mm 3 mps 734 mmHg 94%
    01:00 +13°C° 0 mm 2 mps 734 mmHg 95%
    02:00 +13°C° 3.2 mm 2 mps 734 mmHg 95%
    03:00 +13°C° 3.2 mm 2 mps 734 mmHg 95%
    04:00 +13°C° 3.2 mm 2 mps 734 mmHg 95%
    05:00 +13°C° 0.8 mm 2 mps 734 mmHg 95%
    06:00 +13°C° 0.8 mm 1 mps 734 mmHg 94%
    07:00 +12°C° 0 mm 1 mps 735 mmHg 94%
    08:00 +13°C° 0.9 mm 1 mps 735 mmHg 93%
    09:00 +13°C° 0.9 mm 1 mps 735 mmHg 91%
    10:00 +13°C° 0.9 mm 1 mps 736 mmHg 90%
    11:00 +14°C° 0.7 mm 1 mps 736 mmHg 88%
    12:00 +14°C° 0.7 mm 1 mps 736 mmHg 85%
    13:00 +15°C° 0.7 mm 1 mps 736 mmHg 83%
    14:00 +14°C° 0.1 mm 1 mps 736 mmHg 85%
    15:00 +14°C° 0.1 mm 1 mps 737 mmHg 86%
    16:00 +14°C° 0.1 mm 1 mps 737 mmHg 88%
    17:00 +13°C° 0 mm 1 mps 737 mmHg 89%
    18:00 +13°C° 0 mm 1 mps 738 mmHg 90%
    19:00 +12°C° 0 mm 1 mps 738 mmHg 91%
    20:00 +12°C° 0 mm 1 mps 738 mmHg 91%
    21:00 +12°C° 0 mm 1 mps 739 mmHg 91%
    22:00 +12°C° 0 mm 1 mps 739 mmHg 91%
    23:00 +11°C° 0 mm 1 mps 739 mmHg 91%

    Tomorrow, 22 November, Thursday

    Time Temperature Precipitation Wind Pressure Humidity
    00:00 +11°C° 0 mm 1 mps 739 mmHg 90%
    01:00 +11°C° 0 mm 1 mps 740 mmHg 90%
    02:00 +11°C° 0 mm 1 mps 740 mmHg 90%
    03:00 +11°C° 0 mm 1 mps 740 mmHg 90%
    04:00 +11°C° 0 mm 1 mps 740 mmHg 90%
    05:00 +10°C° 0 mm 1 mps 740 mmHg 89%
    06:00 +10°C° 0 mm 1 mps 740 mmHg 89%
    07:00 +10°C° 0 mm 1 mps 740 mmHg 89%
    08:00 +12°C° 0 mm 1 mps 741 mmHg 84%
    09:00 +13°C° 0 mm 1 mps 741 mmHg 79%
    10:00 +14°C° 0 mm 1 mps 741 mmHg 74%
    11:00 +15°C° 0 mm 1 mps 741 mmHg 72%
    12:00 +15°C° 0 mm 1 mps 741 mmHg 71%
    13:00 +16°C° 0 mm 1 mps 741 mmHg 69%
    14:00 +15°C° 0 mm 1 mps 741 mmHg 73%
    15:00 +14°C° 0 mm 1 mps 741 mmHg 77%
    16:00 +12°C° 0 mm 0 mps 741 mmHg 82%
    17:00 +13°C° 0 mm 1 mps 742 mmHg 83%
    18:00 +12°C° 0 mm 1 mps 742 mmHg 85%
    19:00 +12°C° 0 mm 1 mps 742 mmHg 87%
    20:00 +11°C° 0 mm 1 mps 743 mmHg 86%
    21:00 +11°C° 0 mm 1 mps 743 mmHg 86%
    22:00 +11°C° 0 mm 1 mps 743 mmHg 86%
    23:00 +11°C° 0 mm 1 mps 744 mmHg 85%

    Day after tomorrow, 23 November, Friday

    Time Temperature Precipitation Wind Pressure Humidity
    00:00 +10°C° 0 mm 1 mps 744 mmHg 85%
    01:00 +10°C° 0 mm 1 mps 744 mmHg 84%
    02:00 +10°C° 0 mm 1 mps 744 mmHg 84%
    03:00 +10°C° 0 mm 1 mps 744 mmHg 84%
    04:00 +10°C° 0 mm 1 mps 744 mmHg 83%
    05:00 +10°C° 0 mm 1 mps 745 mmHg 83%
    06:00 +10°C° 0 mm 1 mps 745 mmHg 83%
    07:00 +9°C° 0 mm 1 mps 745 mmHg 82%
    08:00 +11°C° 0 mm 1 mps 745 mmHg 76%
    09:00 +13°C° 0 mm 1 mps 745 mmHg 70%
    10:00 +15°C° 0 mm 1 mps 746 mmHg 64%
    11:00 +15°C° 0 mm 1 mps 745 mmHg 62%
    12:00 +16°C° 0 mm 1 mps 745 mmHg 59%
    13:00 +16°C° 0 mm 1 mps 745 mmHg 57%
    14:00 +15°C° 0 mm 1 mps 745 mmHg 62%
    15:00 +14°C° 0 mm 1 mps 745 mmHg 67%
    16:00 +13°C° 0 mm 1 mps 744 mmHg 72%
    17:00 +12°C° 0 mm 1 mps 745 mmHg 74%
    18:00 +12°C° 0 mm 1 mps 745 mmHg 76%
    19:00 +11°C° 0 mm 1 mps 745 mmHg 77%
    20:00 +11°C° 0 mm 1 mps 745 mmHg 78%
    21:00 +11°C° 0 mm 1 mps 745 mmHg 78%
    22:00 +10°C° 0 mm 2 mps 745 mmHg 78%
    23:00 +9°C° 0 mm 2 mps 745 mmHg 77%

    24 November, Saturday

    Time Temperature Precipitation Wind Pressure Humidity
    00:00 +9°C° 0 mm 2 mps 745 mmHg 77%
    01:00 +9°C° 0 mm 2 mps 745 mmHg 76%
    02:00 +9°C° 0 mm 2 mps 745 mmHg 75%
    03:00 +9°C° 0 mm 2 mps 744 mmHg 74%
    04:00 +9°C° 0 mm 2 mps 744 mmHg 73%
    05:00 +10°C° 0 mm 2 mps 744 mmHg 72%
    06:00 +10°C° 0 mm 2 mps 744 mmHg 71%
    07:00 +10°C° 0 mm 2 mps 743 mmHg 70%
    08:00 +12°C° 0 mm 2 mps 743 mmHg 67%
    09:00 +13°C° 0 mm 2 mps 743 mmHg 65%
    10:00 +14°C° 0 mm 2 mps 743 mmHg 62%
    11:00 +15°C° 0 mm 2 mps 743 mmHg 62%
    12:00 +15°C° 0 mm 2 mps 743 mmHg 62%
    13:00 +14°C° 0 mm 3 mps 742 mmHg 63%
    14:00 +15°C° 0.2 mm 2 mps 742 mmHg 68%
    15:00 +14°C° 0.2 mm 2 mps 742 mmHg 73%
    16:00 +13°C° 0.2 mm 2 mps 742 mmHg 78%
    17:00 +13°C° 0.7 mm 2 mps 742 mmHg 79%
    18:00 +13°C° 0.7 mm 2 mps 741 mmHg 81%
    19:00 +13°C° 0.7 mm 2 mps 741 mmHg 82%
    20:00 +13°C° 0.7 mm 2 mps 742 mmHg 83%
    21:00 +13°C° 0.7 mm 2 mps 742 mmHg 84%
    22:00 +13°C° 0.7 mm 2 mps 742 mmHg 84%
    23:00 +13°C° 0.4 mm 2 mps 741 mmHg 85%

    25 November, Sunday

    Time Temperature Precipitation Wind Pressure Humidity
    00:00 +13°C° 0.4 mm 2 mps 741 mmHg 85%
    01:00 +13°C° 0.4 mm 2 mps 741 mmHg 86%
    02:00 +13°C° 0.2 mm 2 mps 741 mmHg 87%
    03:00 +13°C° 0.2 mm 2 mps 740 mmHg 88%
    04:00 +12°C° 0.2 mm 2 mps 740 mmHg 89%
    05:00 +12°C° 0.1 mm 2 mps 740 mmHg 89%
    06:00 +12°C° 0.1 mm 2 mps 740 mmHg 89%
    07:00 +12°C° 0.1 mm 2 mps 740 mmHg 89%
    08:00 +13°C° 0.1 mm 2 mps 740 mmHg 85%
    09:00 +14°C° 0.1 mm 2 mps 739 mmHg 82%
    10:00 +15°C° 0.1 mm 2 mps 739 mmHg 78%
    11:00 +16°C° 0.2 mm 2 mps 738 mmHg 76%
    12:00 +16°C° 0.2 mm 2 mps 738 mmHg 74%
    13:00 +17°C° 0.2 mm 2 mps 737 mmHg 72%
    14:00 +16°C° 0.4 mm 2 mps 736 mmHg 75%
    15:00 +15°C° 0.4 mm 2 mps 736 mmHg 79%
    16:00 +15°C° 0.4 mm 1 mps 736 mmHg 82%
    17:00 +14°C° 1.3 mm 1 mps 736 mmHg 84%
    18:00 +14°C° 1.3 mm 1 mps 735 mmHg 86%
    19:00 +14°C° 1.3 mm 1 mps 735 mmHg 88%
    20:00 +14°C° 1.8 mm 2 mps 735 mmHg 88%
    21:00 +13°C° 1.8 mm 2 mps 734 mmHg 89%
    22:00 +13°C° 1.8 mm 2 mps 734 mmHg 89%
    23:00 +13°C° 2 mm 2 mps 733 mmHg 90%

    26 November, Monday

    Time Temperature Precipitation Wind Pressure Humidity
    00:00 +13°C° 2 mm 2 mps 733 mmHg 90%
    01:00 +13°C° 2 mm 2 mps 732 mmHg 91%
    02:00 +13°C° 2.9 mm 1 mps 732 mmHg 92%
    03:00 +13°C° 2.9 mm 1 mps 731 mmHg 93%
    04:00 +12°C° 2.9 mm 1 mps 731 mmHg 94%
    05:00 +12°C° 1.2 mm 1 mps 731 mmHg 94%
    06:00 +12°C° 1.2 mm 1 mps 731 mmHg 94%
    07:00 +12°C° 1.2 mm 1 mps 731 mmHg 94%
    08:00 +13°C° 0.9 mm 1 mps 731 mmHg 93%
    09:00 +13°C° 0.9 mm 1 mps 732 mmHg 93%
    10:00 +13°C° 0.9 mm 1 mps 732 mmHg 92%
    11:00 +14°C° 0.2 mm 1 mps 732 mmHg 90%
    12:00 +14°C° 0.2 mm 2 mps 732 mmHg 88%
    13:00 +15°C° 0.2 mm 2 mps 732 mmHg 86%
    14:00 +14°C° 0.1 mm 2 mps 732 mmHg 88%
    15:00 +14°C° 0.1 mm 2 mps 732 mmHg 90%
    16:00 +14°C° 0.1 mm 2 mps 733 mmHg 91%
    17:00 +13°C° 0.1 mm 1 mps 733 mmHg 92%
    18:00 +13°C° 0.1 mm 1 mps 733 mmHg 93%
    19:00 +12°C° 0.1 mm 1 mps 734 mmHg 93%
    20:00 +12°C° 0.1 mm 1 mps 734 mmHg 94%
    21:00 +12°C° 0.1 mm 2 mps 734 mmHg 94%
    22:00 +12°C° 0.1 mm 2 mps 734 mmHg 94%
    23:00 +10°C° 0.2 mm 2 mps 735 mmHg 94%
    Show more